Time,TemperatureF,DewpointF,PressureIn,WindDirection,WindDirectionDegrees,WindSpeedMPH,WindSpeedGustMPH,Humidity,HourlyPrecipIn,Conditions,Clouds,dailyrainin,SoftwareType,DateUTC
2013-09-13 00:25:00,74.0,72.0,29.90,SW,226,1.0,2.0,94,0.00,,,0.00,,2013-09-13 04:25:00,
2013-09-13 00:54:00,75.0,73.0,29.90,SSW,193,0.0,2.0,93,0.00,,,0.00,,2013-09-13 04:54:00,
2013-09-13 01:22:00,75.0,73.0,29.89,SW,221,1.0,3.0,93,0.00,,,0.00,,2013-09-13 05:22:00,
2013-09-13 01:53:00,75.0,73.0,29.88,SW,231,2.0,4.0,93,0.00,,,0.00,,2013-09-13 05:53:00,
2013-09-13 02:12:00,75.0,73.0,29.88,SSW,200,2.0,5.0,93,0.00,,,0.00,,2013-09-13 06:12:00,
2013-09-13 02:22:00,75.0,73.0,29.87,SSW,212,2.0,4.0,93,0.00,,,0.00,,2013-09-13 06:22:00,
2013-09-13 02:52:00,75.0,73.0,29.86,WSW,248,2.0,4.0,93,0.00,,,0.00,,2013-09-13 06:52:00,
2013-09-13 03:22:00,74.0,72.0,29.85,SW,214,2.0,3.0,93,0.00,,,0.00,,2013-09-13 07:22:00,
2013-09-13 03:52:00,74.0,72.0,29.85,WSW,240,3.0,4.0,94,0.00,,,0.00,,2013-09-13 07:52:00,
2013-09-13 04:11:00,74.0,72.0,29.85,WSW,256,2.0,5.0,94,0.00,,,0.00,,2013-09-13 08:11:00,
2013-09-13 04:22:00,74.0,72.0,29.84,SW,226,2.0,4.0,94,0.00,,,0.00,,2013-09-13 08:22:00,
2013-09-13 04:52:00,74.0,72.0,29.84,WSW,246,2.0,5.0,94,0.00,,,0.00,,2013-09-13 08:52:00,
2013-09-13 05:21:00,74.0,72.0,29.84,SW,219,2.0,4.0,95,0.00,,,0.00,,2013-09-13 09:21:00,
2013-09-13 05:54:00,74.0,72.0,29.83,SW,215,2.0,3.0,95,0.00,,,0.00,,2013-09-13 09:54:00,
2013-09-13 06:23:00,74.0,72.0,29.84,WSW,239,2.0,3.0,95,0.00,,,0.00,,2013-09-13 10:23:00,
2013-09-13 06:53:00,73.0,71.0,29.84,SSW,204,2.0,3.0,95,0.00,,,0.00,,2013-09-13 10:53:00,
2013-09-13 07:22:00,73.0,71.0,29.84,WSW,254,2.0,4.0,95,0.00,,,0.00,,2013-09-13 11:22:00,
2013-09-13 07:52:00,74.0,72.0,29.84,SW,214,2.0,3.0,95,0.00,,,0.00,,2013-09-13 11:52:00,
2013-09-13 08:22:00,74.0,72.0,29.84,SSW,203,2.0,5.0,94,0.00,,,0.00,,2013-09-13 12:22:00,
2013-09-13 08:52:00,75.0,72.0,29.85,SW,233,3.0,5.0,91,0.00,,,0.00,,2013-09-13 12:52:00,
2013-09-13 09:22:00,77.0,73.0,29.85,WSW,252,3.0,7.0,87,0.00,,,0.00,,2013-09-13 13:22:00,
2013-09-13 09:52:00,79.0,73.0,29.85,West,275,3.0,5.0,81,0.00,,,0.00,,2013-09-13 13:52:00,
2013-09-13 10:22:00,82.0,74.0,29.85,NW,307,3.0,7.0,77,0.00,,,0.00,,2013-09-13 14:22:00,
2013-09-13 10:52:00,83.0,73.0,29.85,West,280,2.0,6.0,73,0.00,,,0.00,,2013-09-13 14:52:00,
2013-09-13 11:22:00,85.0,73.0,29.84,SW,233,4.0,5.0,68,0.00,,,0.00,,2013-09-13 15:22:00,
2013-09-13 11:53:00,87.0,74.0,29.84,SSW,205,3.0,5.0,65,0.00,,,0.00,,2013-09-13 15:53:00,
2013-09-13 12:24:00,88.0,75.0,29.83,WNW,287,3.0,5.0,65,0.00,,,0.00,,2013-09-13 16:24:00,
2013-09-13 12:54:00,89.0,74.0,29.83,WNW,302,3.0,8.0,62,0.00,,,0.00,,2013-09-13 16:54:00,
2013-09-13 13:24:00,90.0,74.0,29.81,SSW,204,4.0,6.0,60,0.00,,,0.00,,2013-09-13 17:24:00,
2013-09-13 13:53:00,90.0,73.0,29.80,SSW,207,4.0,7.0,58,0.00,,,0.00,,2013-09-13 17:53:00,
2013-09-13 14:22:00,90.0,73.0,29.79,West,266,2.0,8.0,58,0.00,,,0.00,,2013-09-13 18:22:00,
2013-09-13 14:52:00,90.0,73.0,29.78,WNW,293,5.0,7.0,57,0.00,,,0.00,,2013-09-13 18:52:00,
2013-09-13 15:22:00,92.0,74.0,29.78,WSW,249,3.0,6.0,56,0.00,,,0.00,,2013-09-13 19:22:00,
2013-09-13 15:52:00,91.0,73.0,29.76,WSW,244,2.0,7.0,56,0.00,,,0.00,,2013-09-13 19:52:00,
2013-09-13 16:22:00,92.0,73.0,29.75,WNW,302,3.0,7.0,55,0.00,,,0.00,,2013-09-13 20:22:00,
2013-09-13 16:52:00,92.0,73.0,29.75,SW,218,3.0,8.0,55,0.00,,,0.00,,2013-09-13 20:52:00,
2013-09-13 17:22:00,91.0,73.0,29.75,WSW,252,4.0,7.0,55,0.00,,,0.00,,2013-09-13 21:22:00,
2013-09-13 17:54:00,89.0,74.0,29.75,WSW,240,1.0,2.0,61,0.00,,,0.00,,2013-09-13 21:54:00,
2013-09-13 18:24:00,86.0,74.0,29.75,WSW,248,2.0,3.0,67,0.00,,,0.00,,2013-09-13 22:24:00,
2013-09-13 18:53:00,86.0,74.0,29.75,SW,225,1.0,3.0,68,0.00,,,0.00,,2013-09-13 22:53:00,
2013-09-13 19:03:00,86.0,74.0,29.75,SW,225,1.0,3.0,68,0.00,,,0.00,,2013-09-13 23:03:00,
2013-09-13 20:22:00,81.0,73.0,29.79,West,259,1.0,4.0,78,0.00,,,0.00,,2013-09-14 00:22:00,
2013-09-13 20:52:00,80.0,73.0,29.80,SSW,210,1.0,2.0,80,0.00,,,0.00,,2013-09-14 00:52:00,
2013-09-13 21:22:00,79.0,74.0,29.80,SW,233,0.0,1.0,84,0.00,,,0.00,,2013-09-14 01:22:00,
2013-09-13 21:42:00,78.0,74.0,29.80,SW,235,0.0,1.0,87,0.00,,,0.00,,2013-09-14 01:42:00,
2013-09-13 21:52:00,77.0,73.0,29.80,SW,233,0.0,0.0,88,0.00,,,0.00,,2013-09-14 01:52:00,
2013-09-13 22:22:00,76.0,73.0,29.80,SW,233,0.0,0.0,90,0.00,,,0.00,,2013-09-14 02:22:00,
2013-09-13 22:52:00,75.0,73.0,29.82,SW,233,0.0,1.0,92,0.00,,,0.00,,2013-09-14 02:52:00,
2013-09-13 23:22:00,77.0,73.0,29.81,WSW,251,0.0,3.0,88,0.00,,,0.00,,2013-09-14 03:22:00,
2013-09-13 23:55:00,77.0,73.0,29.81,SW,236,1.0,3.0,87,0.00,,,0.00,,2013-09-14 03:55:00,